Location: Buch
(49.7331°N, 12.1098°E)
Time: 01:22:41
(UTC+00:00)

Iridium 4 Rocket - Pass Details

Date: 12 May 2021
Orbit: 583 x 906 km, 86.9° (Epoch: 23 June)

Event Time Altitude Azimuth Distance (km) Brightness Sun altitude
Exits shadow 20:47:24 14° 185° (S) 2,260 5.5 -15.2°
Maximum altitude 20:52:29 84° 272° (W) 915 3.9 -15.6°
Drops below altitude 10° 20:58:28 10° 2° (N) 2,599 7.1 -16.1°
Sets 21:00:56 0° 3° (N) 3,534 7.9 -16.3°
